Wind_Speed
8 8 8 9 9 10 11 12 14 15 16 17 18 19 20 20 21 21 22 22 23 23 24 24 24 24 25 25 25 25 25 25 25 25 25 25 24 24 25 24 24 24 24 24 24 24 24 23 23 23 23 23 23 23 23 23 23 23 22 22 22 22 22 22 22 23 23 23 22
8 8 8 9 10 11 12 13 14 15 15 16 17 18 19 20 20 21 21 21 22 22 23 23 23 24 24 24 24 24 24 24 24 24 24 24 24 24 24 24 24 24 24 24 23 23 23 23 23 23 23 23 22 22 22 22 22 22 22 21 21 21 21 21 21 21 21 21 21
8 8 9 10 11 12 12 13 14 15 15 16 17 18 18 19 19 20 20 20 21 21 22 22 22 23 23 23 24 24 24 24 24 24 23 23 24 24 24 24 23 23 23 23 23 23 23 22 22 22 22 22 22 22 22 22 22 22 22 21 21 20 20 20 20 20 20 20 20
8 8 9 10 11 12 12 13 14 14 15 16 16 17 18 18 19 19 19 20 20 21 21 21 22 22 22 23 23 23 23 24 24 24 23 23 23 23 23 23 23 23 23 23 22 22 22 22 21 21 21 21 21 21 21 22 22 22 22 22 21 20 20 20 19 19 19 19 19
7 8 9 10 10 11 12 13 13 14 15 15 16 16 17 17 18 18 19 19 20 20 21 21 21 22 22 22 22 22 23 23 23 24 24 24 23 23 23 23 23 22 22 22 22 22 22 21 21 21 20 20 20 20 20 20 20 21 21 21 21 21 20 20 19 19 19 18 18
7 8 8 9 10 11 11 12 13 13 14 14 15 16 16 17 17 18 18 18 19 20 20 21 21 21 22 22 22 22 22 23 23 23 24 24 24 24 23 23 23 22 22 22 22 22 21 21 21 21 20 20 20 19 19 19 19 19 19 20 20 20 20 20 20 19 19 18 18
6 7 8 8 9 10 11 11 12 13 13 14 15 15 16 16 17 17 17 18 18 19 20 20 21 21 21 22 22 22 22 23 23 23 23 23 24 24 24 24 23 23 22 22 22 22 21 21 21 21 21 20 20 19 19 19 18 18 18 18 19 19 19 19 20 19 19 19 18
5 6 7 7 8 9 10 10 11 12 13 13 14 15 15 16 16 17 17 17 18 19 19 20 21 21 21 22 22 22 23 23 23 23 23 23 23 23 24 24 24 23 23 23 22 22 22 22 21 21 21 21 20 20 19 19 18 18 18 18 17 17 18 18 18 19 19 19 19
5 5 6 7 7 8 9 10 10 11 12 12 13 14 14 15 16 16 17 17 18 19 19 20 20 21 21 22 22 23 23 23 24 24 24 24 24 24 24 24 24 24 24 24 23 23 22 22 22 22 21 21 21 20 20 19 18 18 18 18 17 17 17 17 17 17 17 18 18
4 5 5 6 7 7 8 9 10 10 11 12 13 13 14 14 15 16 16 17 18 18 19 19 20 20 21 21 22 22 23 23 24 24 24 24 24 24 24 24 24 24 24 24 24 24 23 23 23 22 22 22 21 21 20 19 19 19 18 18 18 17 17 17 16 16 16 16 17
4 4 5 5 6 7 8 8 9 10 10 11 12 12 13 14 14 15 16 17 17 18 18 19 20 20 20 21 22 22 23 23 23 24 24 24 25 25 25 25 24 24 24 24 24 24 24 24 23 23 23 22 22 22 21 21 20 20 19 19 18 18 18 17 17 16 16 16 16
4 4 4 5 5 6 7 8 8 9 10 10 11 12 12 13 14 14 15 16 16 17 17 18 19 19 20 21 21 22 22 23 23 23 24 24 25 25 25 25 25 25 25 25 25 25 24 24 24 23 23 23 23 22 22 22 22 21 21 20 19 19 18 18 18 17 17 17 17
3 3 4 4 5 6 6 7 8 8 9 10 10 11 12 12 13 14 14 14 15 16 17 17 18 19 19 20 21 21 22 22 23 23 23 24 24 25 25 25 25 26 26 26 26 25 25 25 24 24 24 23 23 23 23 22 23 23 23 22 21 21 20 19 19 18 18 18 17
3 3 3 4 4 5 6 6 7 8 9 9 10 11 11 12 13 13 13 14 14 15 16 16 17 18 18 19 20 20 21 21 22 22 23 23 24 24 25 25 26 26 26 26 26 26 26 26 26 25 25 24 24 23 23 22 22 23 23 23 23 23 22 21 21 20 19 19 18
3 2 3 3 4 5 5 6 7 8 8 9 10 10 11 11 12 12 12 13 13 14 15 15 16 17 17 18 19 19 20 21 21 22 23 23 24 24 25 25 26 26 26 26 27 27 27 27 27 27 26 26 25 24 23 23 22 22 22 22 23 23 23 23 23 22 21 21 20
2 2 3 3 4 5 5 6 7 8 8 9 10 10 10 11 11 11 12 12 12 13 14 14 15 16 16 17 18 19 20 20 21 22 23 23 24 24 25 25 26 26 26 27 27 27 27 27 27 28 27 27 27 26 25 24 23 22 22 21 21 22 22 23 23 23 23 23 22
1 2 3 3 4 5 6 6 7 8 8 9 9 10 10 10 10 10 11 11 11 12 13 13 14 15 16 17 18 18 19 20 21 22 23 24 24 25 25 26 26 26 27 27 27 27 28 28 28 28 28 28 28 27 27 26 25 24 23 22 21 21 21 21 22 23 23 23 24
1 2 3 4 5 6 6 7 7 8 8 8 9 9 9 9 9 9 10 10 11 11 12 13 14 14 15 16 17 18 19 20 21 22 23 24 24 25 26 26 26 27 27 27 28 28 28 29 29 29 29 29 29 29 29 28 27 26 25 24 23 22 21 21 21 21 22 23 23
1 3 4 4 5 6 6 7 7 8 8 8 8 8 8 8 8 9 9 10 10 11 12 12 13 14 15 16 17 18 19 20 21 22 23 23 24 25 25 26 27 27 27 28 28 29 29 29 30 30 30 31 31 31 31 31 30 29 28 27 25 24 23 22 22 21 21 21 22
2 3 4 5 5 6 6 7 7 7 7 7 7 7 7 8 8 8 8 9 10 11 11 12 13 14 15 16 17 18 19 20 21 21 22 23 24 24 25 26 26 27 27 28 28 29 30 30 30 31 31 32 32 33 33 33 33 32 31 30 29 27 26 24 24 23 22 22 22
2 3 4 4 5 6 6 6 6 7 7 7 7 7 7 7 7 8 8 9 10 11 12 13 14 15 16 17 18 19 19 20 21 21 22 22 23 24 24 25 26 26 27 27 28 29 29 30 30 31 31 32 32 33 33 34 34 34 34 34 33 31 29 27 26 24 24 23 23
2 3 4 4 5 5 6 6 6 6 6 6 6 6 6 6 7 7 8 9 10 11 13 14 15 16 17 18 19 19 20 21 21 22 22 23 23 24 24 25 25 26 26 27 27 28 29 29 30 30 31 32 32 33 33 34 34 35 35 35 35 35 33 31 29 27 25 24 24
2 3 4 4 5 5 5 5 5 5 5 5 5 5 5 6 7 7 9 10 11 12 13 14 16 17 18 19 19 20 21 21 22 22 23 23 24 24 25 25 25 26 26 26 27 28 28 29 29 30 30 31 32 32 33 33 34 34 35 35 35 36 36 35 33 31 29 27 25
3 3 4 4 5 5 5 5 5 4 4 4 4 5 5 6 7 8 9 10 11 13 14 15 16 17 18 19 20 21 21 22 22 23 23 24 24 25 25 26 26 26 26 26 27 27 28 28 29 30 30 30 31 32 32 33 33 34 35 35 36 36 36 36 35 35 33 31 29
3 4 4 4 4 4 4 4 4 4 4 4 4 5 5 6 7 8 10 11 12 14 15 16 17 18 19 20 20 21 22 22 23 23 24 24 25 25 26 26 26 26 26 26 26 27 27 27 28 29 29 30 31 31 32 32 33 34 34 35 36 36 36 36 36 36 35 34 33
3 4 4 4 4 4 4 4 4 4 4 4 5 5 6 7 8 9 11 12 13 15 16 17 18 19 19 20 21 21 22 23 23 24 24 25 25 25 26 26 26 26 26 26 26 26 26 26 27 27 28 29 30 30 31 32 32 33 34 35 35 36 36 37 36 36 36 36 35
4 4 4 5 5 4 4 4 4 4 5 5 5 6 7 8 9 10 12 13 14 16 17 18 19 19 20 21 21 22 23 23 24 24 25 25 26 26 26 26 26 26 26 26 26 26 25 26 26 26 26 27 28 29 30 31 31 32 33 33 34 35 36 37 37 36 36 36 36
4 4 5 5 5 5 5 5 5 5 5 6 6 7 8 9 10 12 13 14 15 17 18 19 19 20 21 22 22 23 23 24 24 25 26 26 26 26 26 27 27 26 26 26 26 25 25 25 25 25 26 26 27 28 29 30 31 31 32 32 33 34 34 35 36 36 36 36 36
4 5 5 5 5 5 5 5 6 6 6 7 8 9 10 11 12 13 14 15 16 18 19 20 20 21 22 22 23 23 24 24 25 26 26 27 27 27 27 27 27 27 27 27 26 26 26 26 25 25 25 26 27 28 29 30 30 31 31 31 32 32 33 34 34 35 36 36 36
5 5 5 5 6 6 6 6 6 7 7 8 9 10 11 12 13 14 15 16 17 18 19 20 21 21 22 23 23 24 25 25 26 26 27 27 28 28 28 28 29 29 28 28 27 27 27 27 27 26 26 26 27 28 29 30 30 31 31 31 31 31 32 32 32 33 34 35 35
5 5 5 6 6 6 7 7 7 8 8 9 10 11 12 13 14 15 16 17 18 19 20 21 21 22 22 23 24 24 25 26 26 27 27 28 28 29 29 30 30 30 29 29 29 29 28 28 28 28 28 28 28 29 29 30 31 31 31 32 32 31 31 31 31 32 32 33 34
5 6 6 6 7 7 7 8 8 9 9 10 11 12 13 14 15 16 17 18 19 20 21 21 22 22 23 23 24 25 25 26 26 27 27 28 29 30 30 30 31 30 30 30 30 30 30 30 29 29 29 29 30 30 31 31 31 32 32 32 32 32 31 31 31 31 31 31 32
6 6 6 7 7 7 8 8 9 9 10 11 12 13 14 15 16 17 18 19 20 21 21 22 22 23 23 24 25 25 26 26 27 27 28 28 29 30 30 31 31 31 31 31 30 30 30 30 30 30 30 31 31 31 32 32 32 33 33 33 33 33 32 32 31 31 31 31 31
6 6 6 7 7 8 8 9 9 10 11 11 12 13 14 16 17 18 19 20 21 21 22 22 23 23 24 25 25 26 26 27 27 28 28 29 29 30 31 31 32 32 31 31 31 31 31 31 31 31 31 32 32 32 33 33 33 33 33 34 34 34 33 33 32 31 31 31 31
6 6 7 7 7 8 8 9 10 11 11 12 13 14 15 17 18 19 20 20 21 22 22 23 24 24 25 25 26 27 27 28 28 29 29 30 30 31 32 32 33 33 32 32 32 32 32 32 32 32 32 32 33 33 33 34 34 34 34 34 34 34 34 34 33 33 32 32 31
6 7 7 7 8 8 9 10 10 11 12 13 14 15 16 18 18 19 20 21 22 22 23 24 24 25 26 26 27 27 28 29 29 30 30 31 31 32 33 34 34 34 34 34 34 34 34 33 33 33 32 32 33 33 33 34 34 34 34 34 34 34 34 34 34 34 33 33 32
6 7 7 8 8 9 10 10 11 12 13 14 15 16 17 18 19 20 21 21 22 23 24 24 25 25 26 27 27 28 29 29 30 31 32 32 33 34 35 36 37 37 36 36 36 36 35 34 34 33 32 32 32 33 33 33 33 33 34 34 34 34 34 34 34 34 34 34 33
7 7 7 8 8 9 10 11 12 13 14 15 16 17 18 19 20 20 21 22 23 24 24 25 26 26 27 27 28 29 30 30 31 32 33 34 35 36 37 38 39 39 39 38 38 37 36 35 34 33 32 32 32 32 32 32 32 32 33 33 33 34 34 34 34 34 34 34 34
7 7 8 8 9 10 11 12 13 14 15 16 17 18 19 19 20 21 21 22 23 24 25 26 26 27 27 28 29 30 31 32 32 33 34 36 36 37 38 40 40 41 40 40 39 38 37 36 34 33 31 31 30 30 30 30 30 31 31 31 32 32 33 33 33 34 34 34 33
7 7 8 9 9 10 11 12 14 15 16 17 18 18 19 20 20 21 22 22 23 24 25 26 27 28 28 29 31 32 33 34 34 35 36 37 38 39 39 40 41 42 41 40 40 38 37 35 34 32 31 30 29 28 28 28 28 29 29 30 30 30 31 32 32 32 32 33 33
7 7 8 9 10 11 12 13 14 15 16 17 18 19 20 20 21 22 22 23 24 24 25 27 28 29 29 30 32 33 34 36 36 36 37 38 39 40 40 41 42 42 42 41 39 38 36 35 33 31 30 28 27 26 26 26 27 27 28 28 28 28 29 30 30 30 31 31 32
Wind_Direction
77 70 63 57 50 45 40 37 34 33 32 31 31 30 29 28 28 28 27 26 26 26 26 25 24 23 22 22 21 21 21 20 20 19 18 18 19 19 19 20 20 20 20 20 20 21 20 20 19 19 19 20 20 20 20 20 20 20 21 21 22 22 22 24 25 27 27 27 25
75 67 61 56 50 46 42 39 36 33 31 30 29 29 28 27 27 27 26 26 25 25 24 23 22 21 20 20 19 19 19 19 18 18 17 17 17 17 18 18 18 18 18 18 19 19 19 19 18 17 17 17 17 17 18 17 17 17 17 18 19 19 19 19 19 20 22 24 25
70 62 56 51 48 45 43 40 37 34 32 29 28 27 27 26 25 25 25 24 23 23 22 22 21 19 19 18 17 17 16 16 16 16 16 16 16 16 16 16 16 16 16 17 17 17 18 18 18 17 17 16 15 15 15 15 14 13 13 14 15 16 16 17 16 15 15 16 19
65 57 51 47 44 42 41 38 36 34 31 29 27 26 25 24 23 23 22 21 21 20 20 20 19 18 17 17 16 15 15 14 14 14 14 14 15 15 15 15 15 15 15 15 15 15 15 15 16 17 17 16 15 14 13 12 11 11 10 9 10 11 13 14 13 13 11 11 11
60 53 47 42 39 37 36 34 34 32 29 27 26 25 24 23 22 21 20 19 19 18 18 17 17 16 16 16 16 15 14 13 12 12 12 13 13 14 14 14 14 14 14 13 13 12 12 12 13 14 15 15 15 15 13 11 10 9 8 6 6 6 7 9 9 10 9 8 7
58 50 43 38 35 32 31 30 30 29 27 25 24 24 23 21 20 20 19 18 17 16 15 14 14 14 14 14 14 13 13 12 12 12 12 12 11 11 12 12 13 13 13 12 11 11 10 10 10 11 11 12 13 13 12 11 9 8 7 5 4 3 3 4 4 4 4 4 3
58 49 43 36 32 30 28 26 25 24 24 23 22 22 20 19 18 18 17 16 14 13 13 12 12 12 11 11 11 11 11 11 12 12 12 12 11 11 11 11 11 11 11 11 10 10 9 8 8 8 8 8 9 9 9 9 7 6 5 4 3 1 0 360 359 359 358 358 357
57 48 41 34 29 27 24 23 22 21 21 20 20 19 17 16 15 15 14 13 13 12 11 10 10 10 9 9 9 9 9 10 10 11 11 11 11 11 10 10 10 10 9 9 9 8 8 7 6 6 5 5 5 5 5 4 3 3 2 1 1 0 359 357 356 355 354 352 352
61 49 39 32 27 24 21 20 19 19 19 18 16 14 13 12 12 11 11 11 11 9 9 9 9 8 7 7 7 7 7 7 8 9 9 10 10 10 10 10 10 9 8 7 7 7 6 6 5 4 3 2 1 1 0 360 359 358 358 357 357 357 356 355 353 352 350 349 348
67 53 42 34 27 22 19 17 16 16 15 15 13 11 10 9 9 9 9 8 8 8 8 7 7 6 6 5 5 5 5 5 6 6 7 7 8 9 9 9 9 9 8 6 6 5 4 4 4 3 2 360 359 358 357 356 355 354 353 353 352 352 351 351 350 349 348 346 345
74 58 45 36 28 21 18 18 16 14 13 12 10 9 8 7 7 7 6 6 7 7 6 5 5 4 4 4 4 4 4 4 4 4 5 5 5 6 7 7 7 7 6 5 4 3 3 3 2 2 0 358 357 355 354 354 352 351 350 349 348 347 346 346 345 345 345 344 343
85 66 49 36 26 21 19 18 15 13 11 10 8 7 6 6 6 6 7 7 8 7 5 3 3 2 2 2 2 3 3 3 3 3 3 3 3 3 3 3 3 3 3 2 2 1 1 0 360 359 358 357 355 354 353 352 350 348 346 345 344 343 342 341 341 341 341 340 339
96 74 54 37 27 22 20 18 14 11 9 7 6 5 4 5 5 6 8 9 9 7 5 4 2 2 1 1 1 1 1 1 1 1 0 0 360 360 360 359 359 359 359 358 358 358 357 357 356 356 355 355 354 353 351 350 348 346 344 343 341 340 339 338 337 337 336 335 335
106 80 57 39 29 23 20 15 11 8 6 5 3 3 3 4 5 7 9 10 10 8 7 5 3 2 1 0 360 360 359 359 358 358 358 357 357 357 356 356 355 355 355 354 354 353 353 352 352 351 351 351 351 350 350 348 347 345 342 341 339 338 336 335 334 333 332 331 331
110 79 54 36 28 22 16 11 7 5 4 3 1 1 2 4 5 7 9 10 10 8 7 6 4 2 0 359 359 358 356 355 355 354 354 353 353 353 352 352 351 351 351 350 350 349 348 348 347 347 347 346 346 346 346 345 345 343 341 340 338 336 334 333 332 331 329 328 327
112 71 44 30 22 15 11 6 5 3 2 1 360 360 2 3 5 7 9 11 9 8 7 5 3 1 359 357 356 354 353 351 350 350 349 349 348 348 348 348 347 347 346 346 345 344 344 343 342 342 342 341 341 341 341 341 341 340 339 338 336 335 333 331 330 329 328 326 324
103 50 28 19 12 8 6 3 2 1 1 1 360 1 1 3 6 8 10 10 9 8 6 3 1 358 356 354 352 350 349 347 346 345 345 344 344 344 343 343 343 342 342 341 340 340 339 338 337 337 336 336 335 335 335 335 335 335 335 335 334 333 332 330 328 327 325 324 323
55 21 12 9 6 4 2 1 360 360 360 360 360 1 1 3 6 8 9 9 8 6 3 360 357 355 353 350 348 346 345 344 342 342 341 341 340 340 339 339 339 338 338 337 336 336 335 334 333 332 331 330 330 329 329 329 330 330 330 331 331 330 330 328 326 325 323 322 321
14 8 4 3 2 360 359 358 358 358 358 358 359 360 1 3 5 7 7 7 5 2 359 356 353 351 348 346 344 342 341 340 339 338 338 337 337 336 336 335 335 334 334 334 333 332 331 331 330 329 328 327 326 325 325 325 325 325 325 326 326 326 327 326 325 324 322 320 319
357 359 358 359 357 356 355 355 355 354 354 355 356 358 359 1 1 3 4 2 360 357 354 351 348 346 344 342 340 338 337 336 336 335 334 334 333 333 332 332 332 331 331 331 330 329 328 328 327 326 326 325 324 323 323 322 321 321 321 321 321 322 322 323 322 322 320 319 317
344 351 352 353 353 352 351 350 350 350 350 350 352 353 354 356 357 358 357 355 353 350 348 345 343 341 339 337 336 335 334 333 333 332 332 331 331 330 329 329 328 328 328 327 327 326 325 325 324 324 323 323 322 321 321 320 319 319 318 318 318 317 318 318 319 319 318 317 316
330 341 346 347 347 346 345 343 344 344 344 344 345 346 348 349 350 350 349 348 346 344 342 340 337 336 334 333 332 331 331 330 330 329 329 328 328 327 327 326 326 325 325 324 324 323 322 322 321 321 320 320 319 318 318 317 317 316 316 315 315 314 314 314 314 315 315 315 314
320 333 339 339 339 338 337 337 336 336 335 335 335 336 339 341 341 341 341 340 339 337 335 333 332 331 330 329 328 328 327 327 327 327 327 326 326 325 325 324 324 323 323 322 322 321 320 319 318 318 317 316 316 315 315 314 314 313 313 312 312 312 311 311 312 312 312 311 311
313 324 328 330 330 330 329 328 327 325 322 321 323 324 326 329 331 332 333 332 331 330 329 328 327 326 325 325 325 325 324 324 325 325 325 325 324 324 324 323 323 322 322 321 321 320 319 319 318 316 315 314 313 312 312 311 311 311 310 310 309 309 308 309 309 309 309 309 308
306 316 320 322 321 321 318 316 313 310 306 305 307 311 315 319 322 324 325 325 325 324 323 323 322 322 322 322 322 322 322 323 323 323 323 323 323 323 322 322 321 321 321 320 320 319 319 318 317 316 315 313 312 310 309 308 308 308 307 307 307 306 306 306 306 307 307 307 307
301 308 311 312 311 310 306 302 298 295 293 293 296 302 306 311 315 317 318 318 319 319 319 318 318 318 318 319 319 320 321 321 321 321 322 322 321 321 321 321 320 320 320 320 319 318 318 317 316 315 314 313 311 309 307 306 305 304 304 304 304 304 305 305 305 305 305 306 306
295 299 301 303 302 298 293 290 286 284 283 286 291 296 301 306 309 311 313 313 314 314 314 314 314 315 316 317 318 318 319 320 320 320 320 320 320 320 320 319 319 319 319 319 319 318 317 316 315 314 313 312 310 308 306 304 303 302 301 301 301 302 303 303 304 304 304 304 304
288 291 293 294 291 287 285 282 280 279 281 285 289 295 299 302 305 307 309 310 310 310 310 311 312 313 314 315 316 317 318 319 319 319 319 320 320 319 319 319 319 319 319 319 318 317 316 315 313 312 311 310 309 307 305 303 302 300 299 299 298 299 300 300 301 302 302 302 303
282 284 285 283 281 280 278 277 278 280 283 286 290 294 298 301 303 305 306 307 307 307 308 309 310 312 313 314 316 317 317 318 318 319 319 319 319 319 319 318 318 318 319 319 318 317 316 314 313 311 310 309 307 306 304 303 301 300 298 297 296 296 296 297 298 299 299 300 301
274 276 276 275 275 275 275 277 279 282 285 288 291 295 298 300 303 304 304 304 305 305 306 307 309 311 312 314 315 316 317 317 317 318 318 318 318 318 318 318 318 318 318 318 318 316 315 314 313 311 310 308 307 305 303 302 301 300 298 297 295 295 294 294 295 295 296 297 297
268 269 269 271 271 273 275 278 281 284 288 291 294 296 299 302 303 303 303 303 303 304 305 306 308 310 312 313 314 315 315 316 316 317 317 317 317 317 316 316 316 317 317 317 317 316 315 314 313 312 310 309 307 305 303 302 301 299 298 296 295 294 294 293 292 292 292 293 294
262 264 266 268 271 274 278 281 285 287 290 293 296 298 300 302 302 302 301 301 302 303 304 306 308 310 311 312 313 314 314 314 315 315 315 315 315 315 315 315 315 315 315 315 315 314 314 313 312 311 310 309 307 305 303 302 300 299 298 297 296 295 294 293 292 291 290 290 291
257 260 263 267 272 276 281 285 287 290 293 295 297 299 300 300 300 300 300 301 302 304 306 307 309 310 311 312 312 313 313 313 313 313 313 313 313 313 313 313 312 313 313 313 313 312 312 311 311 310 309 308 306 304 303 301 300 299 298 297 297 296 295 294 292 291 290 289 288
255 258 263 268 273 278 282 286 288 291 294 296 298 299 299 299 299 300 301 302 303 305 307 309 310 311 312 312 312 312 312 312 312 312 312 312 312 311 311 311 311 311 311 311 311 311 311 310 310 309 308 306 305 303 302 300 300 298 298 297 297 296 295 294 293 292 290 289 287
254 258 263 268 273 277 282 285 288 291 294 296 297 298 298 298 299 301 302 304 306 307 309 311 312 312 312 313 313 312 312 312 312 311 311 311 311 310 310 309 310 310 310 311 311 310 310 310 309 308 307 305 303 302 300 299 298 297 296 295 295 295 295 294 293 292 291 289 288
252 257 262 267 272 277 281 285 289 292 294 296 296 297 298 300 301 303 305 307 308 310 311 312 312 313 313 313 313 312 312 312 311 311 311 311 311 311 310 310 310 310 311 311 311 311 310 309 309 308 306 304 302 300 299 297 296 295 294 293 293 293 293 293 292 291 290 289 288
251 257 262 267 273 278 283 287 291 293 295 296 298 299 301 302 304 306 308 310 311 312 312 312 312 312 312 312 311 311 310 310 311 311 311 311 311 312 312 311 311 311 312 312 311 311 310 310 309 307 305 303 301 299 297 295 294 293 292 291 291 291 291 290 290 290 289 289 288
255 261 267 273 278 283 288 292 295 297 298 299 301 302 304 306 308 309 311 312 312 312 312 312 312 312 311 311 310 310 309 310 310 311 311 312 312 312 313 312 312 312 312 312 311 311 310 309 308 307 304 302 299 297 295 293 292 290 289 289 289 288 288 288 288 288 287 287 287
262 269 275 282 288 292 296 299 301 302 303 304 305 306 308 309 311 312 313 313 312 312 312 312 311 311 311 311 310 310 309 310 310 311 311 312 312 313 312 312 311 311 311 311 311 310 310 309 307 306 303 301 298 296 294 292 290 288 287 286 286 286 287 287 287 286 286 286 286
272 280 287 293 297 301 303 306 307 307 308 308 310 311 312 313 313 313 313 313 312 312 311 311 311 311 311 311 310 310 310 310 310 311 311 312 312 312 311 311 310 310 310 310 310 309 309 308 306 305 303 300 298 296 293 291 289 287 285 284 284 285 285 286 286 286 285 285 285
283 292 298 304 307 309 311 312 312 312 312 313 314 314 314 314 314 314 313 313 312 312 311 311 310 310 310 310 310 310 310 310 310 311 311 311 311 311 310 310 309 309 309 309 309 308 308 307 305 304 302 300 298 296 293 289 287 285 283 283 283 283 284 284 285 285 285 285 285
Height
1480 1480 1480 1480 1479 1479 1479 1478 1478 1478 1477 1477 1476 1476 1475 1475 1474 1474 1473 1472 1472 1471 1470 1470 1469 1468 1468 1467 1467 1466 1466 1465 1464 1464 1463 1462 1461 1461 1460 1459 1459 1458 1458 1457 1456 1456 1455 1454 1454 1453 1452 1452 1451 1451 1450 1449 1449 1448 1447 1447 1446 1446 1445 1445 1444 1443 1443 1442 1441
1480 1480 1479 1479 1479 1478 1478 1478 1478 1477 1477 1476 1476 1476 1475 1475 1474 1474 1473 1472 1472 1471 1471 1470 1469 1469 1468 1467 1467 1466 1466 1465 1465 1464 1463 1462 1461 1461 1460 1459 1459 1458 1458 1457 1456 1456 1456 1455 1454 1453 1453 1452 1451 1451 1450 1449 1449 1448 1448 1447 1447 1446 1446 1445 1444 1444 1443 1443 1442
1479 1479 1479 1479 1478 1478 1478 1477 1477 1477 1477 1476 1476 1476 1475 1475 1474 1474 1473 1473 1472 1471 1471 1470 1469 1469 1468 1467 1467 1466 1466 1465 1465 1464 1463 1462 1462 1461 1460 1460 1459 1458 1458 1457 1457 1456 1456 1455 1455 1454 1453 1452 1452 1451 1450 1450 1449 1448 1448 1447 1447 1446 1446 1445 1445 1444 1444 1443 1442
1479 1479 1478 1478 1478 1478 1477 1477 1477 1477 1476 1476 1476 1475 1475 1475 1474 1474 1473 1473 1472 1471 1471 1470 1470 1469 1468 1467 1467 1466 1466 1465 1465 1464 1463 1462 1462 1461 1460 1460 1459 1458 1458 1457 1457 1456 1456 1456 1455 1455 1454 1453 1452 1451 1451 1450 1449 1449 1448 1447 1447 1446 1446 1446 1445 1445 1444 1444 1443
1478 1478 1478 1478 1478 1477 1477 1477 1477 1476 1476 1476 1476 1475 1475 1474 1474 1473 1473 1473 1472 1471 1471 1470 1470 1469 1468 1467 1467 1466 1466 1465 1464 1464 1463 1462 1461 1461 1460 1460 1459 1458 1458 1457 1456 1456 1456 1455 1455 1455 1454 1454 1453 1452 1452 1451 1450 1449 1449 1448 1447 1447 1446 1446 1445 1445 1444 1444 1444
1478 1477 1477 1477 1477 1477 1477 1477 1476 1476 1476 1476 1475 1475 1475 1474 1474 1473 1473 1472 1472 1471 1471 1470 1470 1469 1468 1468 1467 1466 1466 1465 1464 1463 1463 1462 1461 1461 1460 1459 1459 1458 1458 1457 1457 1456 1456 1455 1455 1454 1454 1454 1453 1453 1452 1452 1451 1450 1450 1449 1448 1447 1446 1446 1445 1445 1444 1444 1443
1477 1477 1477 1477 1476 1476 1476 1476 1476 1476 1476 1475 1475 1475 1474 1474 1473 1473 1473 1472 1472 1471 1471 1470 1469 1469 1468 1467 1467 1466 1466 1465 1464 1463 1462 1462 1461 1461 1460 1459 1459 1458 1458 1457 1456 1456 1456 1455 1454 1454 1454 1453 1453 1453 1452 1452 1451 1451 1450 1450 1449 1448 1447 1446 1446 1445 1444 1444 1443
1476 1476 1476 1476 1476 1476 1476 1476 1476 1476 1475 1475 1475 1474 1474 1474 1473 1473 1472 1472 1471 1471 1470 1470 1469 1468 1468 1467 1466 1466 1465 1464 1464 1463 1462 1462 1461 1461 1460 1459 1458 1458 1457 1457 1456 1456 1455 1455 1454 1454 1453 1453 1452 1452 1452 1452 1451 1451 1451 1450 1450 1449 1448 1447 1446 1446 1445 1444 1443
1476 1476 1475 1475 1475 1475 1475 1475 1475 1475 1475 1475 1474 1474 1474 1473 1473 1472 1472 1471 1471 1470 1470 1469 1468 1468 1467 1467 1466 1466 1465 1464 1463 1463 1462 1461 1461 1460 1460 1459 1458 1458 1457 1456 1456 1456 1455 1455 1454 1453 1453 1453 1452 1452 1452 1451 1451 1451 1451 1450 1450 1449 1448 1448 1447 1446 1445 1444 1443
1475 1475 1475 1475 1475 1475 1475 1475 1475 1475 1475 1474 1474 1474 1473 1473 1472 1472 1471 1471 1470 1470 1469 1469 1468 1467 1467 1466 1466 1465 1464 1464 1463 1462 1462 1461 1461 1460 1459 1459 1458 1457 1457 1456 1456 1455 1455 1454 1454 1453 1453 1452 1452 1452 1451 1451 1451 1451 1450 1450 1449 1449 1448 1448 1447 1446 1446 1445 1444
1474 1474 1474 1474 1474 1474 1474 1474 1474 1474 1474 1474 1473 1473 1473 1472 1472 1471 1471 1470 1470 1469 1469 1468 1468 1467 1466 1466 1465 1465 1464 1463 1463 1462 1461 1461 1460 1460 1459 1458 1458 1457 1457 1456 1456 1455 1454 1454 1453 1453 1452 1452 1451 1451 1451 1450 1450 1450 1450 1449 1449 1449 1448 1448 1447 1446 1446 1445 1444
1473 1473 1473 1473 1473 1474 1474 1474 1474 1473 1473 1473 1473 1473 1472 1472 1471 1471 1471 1470 1470 1469 1468 1468 1467 1467 1466 1466 1465 1464 1464 1463 1463 1462 1461 1461 1460 1460 1459 1458 1458 1457 1456 1456 1455 1455 1454 1454 1453 1453 1452 1452 1451 1451 1450 1449 1449 1449 1449 1448 1448 1448 1447 1447 1446 1446 1446 1445 1444
1473 1473 1473 1473 1473 1473 1473 1473 1473 1473 1473 1473 1472 1472 1472 1471 1471 1471 1470 1470 1469 1469 1468 1467 1467 1466 1466 1465 1465 1464 1464 1463 1462 1462 1461 1461 1460 1460 1459 1458 1457 1457 1456 1456 1455 1454 1454 1453 1453 1452 1452 1451 1451 1450 1450 1449 1448 1448 1447 1447 1447 1447 1446 1446 1446 1446 1445 1445 1444
1472 1472 1472 1472 1472 1472 1472 1472 1472 1472 1472 1472 1472 1471 1471 1471 1470 1470 1470 1469 1469 1468 1468 1467 1466 1466 1466 1465 1465 1464 1464 1463 1462 1462 1461 1461 1460 1459 1459 1458 1457 1457 1456 1455 1455 1454 1453 1453 1452 1452 1451 1451 1451 1450 1449 1449 1448 1447 1447 1446 1446 1445 1445 1445 1445 1445 1444 1444 1444
1471 1471 1471 1471 1471 1471 1472 1472 1472 1471 1471 1471 1471 1471 1470 1470 1470 1469 1469 1469 1468 1468 1467 1467 1466 1466 1466 1465 1465 1464 1464 1463 1462 1462 1461 1461 1460 1459 1459 1458 1457 1456 1456 1455 1455 1454 1453 1452 1451 1451 1451 1450 1450 1449 1449 1448 1448 1447 1446 1446 1445 1445 1444 1444 1443 1443 1443 1443 1442
1471 1471 1471 1471 1471 1471 1471 1471 1471 1471 1471 1470 1470 1470 1469 1469 1469 1469 1468 1468 1468 1467 1467 1466 1466 1466 1465 1465 1465 1464 1463 1463 1462 1461 1461 1460 1460 1459 1458 1458 1457 1456 1456 1455 1454 1454 1453 1452 1451 1451 1450 1449 1449 1448 1448 1448 1447 1447 1446 1446 1445 1444 1444 1443 1442 1442 1441 1441 1441
1470 1470 1470 1470 1470 1470 1470 1470 1470 1470 1469 1469 1469 1469 1468 1468 1468 1468 1468 1467 1467 1467 1466 1466 1466 1466 1465 1465 1464 1464 1463 1463 1462 1461 1461 1460 1459 1458 1458 1457 1456 1456 1455 1455 1454 1453 1452 1452 1451 1450 1450 1449 1448 1448 1447 1447 1446 1446 1446 1446 1445 1444 1443 1443 1442 1441 1441 1440 1440
1469 1469 1469 1469 1469 1469 1469 1469 1469 1469 1468 1468 1468 1468 1467 1467 1467 1467 1467 1467 1466 1466 1466 1466 1466 1465 1465 1464 1464 1464 1463 1462 1462 1461 1460 1460 1459 1458 1457 1457 1456 1456 1455 1454 1453 1453 1452 1451 1451 1450 1449 1448 1447 1447 1446 1446 1446 1445 1445 1445 1444 1444 1443 1443 1442 1441 1440 1439 1439
1468 1467 1467 1467 1467 1468 1468 1468 1468 1467 1467 1467 1467 1467 1466 1466 1466 1466 1466 1466 1466 1466 1466 1465 1465 1465 1465 1464 1464 1463 1463 1462 1461 1461 1460 1459 1459 1458 1457 1456 1456 1455 1454 1454 1453 1452 1451 1450 1450 1449 1448 1447 1446 1446 1445 1445 1444 1444 1444 1443 1443 1443 1443 1442 1441 1441 1440 1439 1438
1466 1466 1466 1466 1466 1467 1467 1467 1467 1466 1466 1466 1466 1466 1466 1466 1466 1466 1465 1465 1465 1465 1465 1465 1465 1464 1464 1464 1463 1463 1462 1462 1461 1461 1460 1459 1459 1458 1457 1456 1456 1455 1454 1453 1452 1451 1451 1450 1449 1448 1447 1446 1446 1445 1444 1443 1443 1442 1442 1441 1441 1441 1441 1441 1441 1440 1440 1439 1438
1466 1466 1466 1466 1466 1466 1466 1466 1466 1466 1466 1466 1465 1465 1465 1465 1465 1465 1465 1465 1464 1464 1464 1464 1464 1464 1463 1463 1463 1462 1462 1461 1461 1461 1460 1459 1458 1458 1457 1456 1455 1455 1454 1453 1452 1451 1450 1449 1448 1447 1446 1446 1445 1444 1443 1442 1441 1441 1440 1440 1439 1439 1440 1440 1440 1440 1439 1438 1438
1465 1465 1465 1465 1465 1465 1465 1465 1465 1465 1465 1465 1465 1465 1464 1464 1464 1464 1464 1464 1464 1463 1463 1463 1463 1463 1463 1462 1462 1462 1461 1461 1460 1460 1459 1458 1458 1457 1456 1456 1455 1454 1454 1453 1452 1451 1450 1449 1448 1447 1446 1445 1444 1443 1443 1442 1441 1440 1439 1438 1438 1437 1437 1437 1438 1438 1438 1437 1437
1464 1464 1464 1464 1464 1464 1464 1464 1464 1464 1464 1464 1464 1464 1464 1463 1463 1463 1463 1463 1463 1463 1462 1462 1462 1462 1462 1461 1461 1461 1460 1460 1459 1459 1458 1458 1457 1456 1456 1455 1454 1454 1453 1452 1451 1450 1449 1448 1447 1446 1446 1445 1444 1443 1442 1441 1440 1439 1438 1437 1437 1436 1436 1435 1435 1435 1436 1436 1436
1462 1463 1463 1463 1463 1463 1463 1463 1463 1463 1463 1463 1463 1463 1463 1463 1463 1462 1462 1462 1462 1462 1461 1461 1461 1461 1461 1461 1460 1460 1459 1459 1458 1458 1457 1456 1456 1455 1454 1454 1453 1452 1452 1451 1451 1450 1449 1447 1446 1446 1445 1444 1443 1442 1441 1440 1440 1438 1437 1436 1436 1435 1434 1434 1433 1433 1433 1433 1433
1461 1461 1462 1462 1462 1462 1462 1462 1462 1462 1462 1462 1462 1462 1462 1462 1462 1461 1461 1461 1461 1461 1461 1461 1461 1460 1460 1460 1459 1459 1458 1458 1457 1456 1456 1456 1455 1454 1453 1453 1452 1451 1451 1450 1450 1449 1448 1447 1446 1445 1444 1443 1442 1441 1441 1440 1439 1438 1437 1436 1435 1434 1433 1432 1432 1431 1431 1431 1431
1461 1461 1461 1461 1461 1461 1461 1461 1461 1461 1462 1461 1461 1461 1461 1461 1461 1461 1461 1460 1460 1460 1460 1460 1460 1459 1459 1459 1458 1458 1457 1456 1456 1455 1455 1454 1454 1453 1452 1451 1451 1450 1450 1449 1448 1448 1447 1446 1445 1444 1443 1442 1441 1440 1439 1439 1438 1437 1436 1435 1434 1433 1432 1431 1431 1430 1430 1429 1428
1459 1460 1460 1460 1460 1461 1461 1461 1461 1461 1461 1461 1461 1461 1461 1460 1460 1460 1460 1459 1459 1459 1459 1459 1459 1458 1458 1457 1457 1456 1456 1455 1455 1454 1453 1453 1452 1451 1451 1450 1450 1449 1448 1448 1447 1446 1446 1445 1444 1443 1442 1441 1440 1439 1438 1437 1436 1436 1435 1434 1433 1432 1431 1430 1429 1429 1428 1427 1427
1459 1459 1459 1459 1459 1460 1460 1460 1460 1460 1460 1460 1460 1460 1460 1459 1459 1459 1459 1458 1458 1458 1458 1458 1457 1457 1457 1456 1456 1455 1455 1454 1453 1452 1452 1451 1451 1450 1449 1449 1448 1447 1447 1446 1446 1445 1444 1444 1443 1442 1441 1440 1439 1438 1436 1436 1435 1435 1434 1433 1433 1432 1431 1430 1429 1428 1427 1426 1425
1458 1458 1458 1458 1458 1459 1459 1459 1459 1459 1459 1459 1459 1459 1458 1458 1458 1458 1458 1457 1457 1457 1457 1456 1456 1456 1455 1455 1454 1454 1453 1452 1452 1451 1450 1450 1449 1448 1448 1447 1446 1446 1446 1445 1444 1443 1443 1442 1441 1441 1440 1439 1437 1436 1435 1434 1433 1433 1432 1432 1431 1431 1430 1429 1428 1427 1426 1425 1424
1457 1457 1457 1457 1458 1458 1458 1458 1458 1458 1458 1458 1458 1458 1457 1457 1457 1457 1456 1456 1456 1456 1456 1455 1455 1455 1454 1453 1453 1452 1451 1451 1450 1449 1449 1448 1447 1446 1446 1445 1445 1444 1444 1443 1442 1441 1441 1440 1439 1438 1438 1437 1436 1434 1433 1432 1431 1431 1430 1430 1429 1429 1429 1428 1427 1426 1425 1424 1423
1456 1456 1456 1456 1457 1457 1457 1457 1457 1457 1457 1457 1456 1456 1456 1456 1456 1456 1456 1455 1455 1455 1455 1454 1454 1453 1453 1452 1451 1451 1450 1449 1449 1448 1447 1446 1446 1445 1444 1444 1443 1442 1442 1441 1441 1440 1439 1438 1437 1436 1436 1435 1433 1432 1431 1430 1429 1428 1428 1427 1427 1427 1426 1426 1425 1425 1424 1423 1422
1455 1455 1456 1456 1456 1456 1456 1456 1456 1456 1456 1456 1456 1455 1455 1455 1455 1454 1454 1454 1454 1453 1453 1453 1452 1452 1451 1451 1450 1449 1448 1448 1447 1446 1446 1445 1444 1443 1442 1442 1441 1441 1440 1440 1439 1438 1437 1436 1435 1434 1433 1432 1431 1430 1429 1428 1427 1426 1425 1425 1424 1424 1424 1423 1423 1422 1422 1421 1420
1454 1454 1455 1455 1455 1455 1455 1455 1455 1455 1455 1455 1454 1454 1454 1454 1453 1453 1453 1452 1452 1452 1451 1451 1451 1450 1449 1449 1448 1447 1447 1446 1446 1445 1444 1443 1442 1441 1441 1440 1440 1439 1439 1438 1437 1436 1435 1434 1433 1432 1431 1430 1428 1427 1426 1425 1424 1423 1422 1422 1421 1421 1421 1421 1420 1420 1419 1419 1418
1453 1453 1453 1454 1454 1454 1454 1454 1454 1454 1453 1453 1453 1453 1453 1452 1452 1452 1451 1451 1451 1450 1450 1449 1449 1448 1447 1447 1446 1446 1445 1444 1443 1443 1442 1441 1441 1440 1439 1438 1438 1437 1437 1436 1435 1434 1433 1432 1431 1430 1428 1427 1426 1425 1423 1422 1421 1421 1420 1419 1419 1418 1418 1417 1417 1416 1416 1416 1415
1452 1452 1452 1452 1453 1453 1453 1453 1452 1452 1452 1452 1452 1452 1451 1451 1451 1451 1450 1450 1449 1449 1448 1448 1447 1446 1446 1445 1444 1443 1443 1442 1441 1441 1440 1439 1439 1438 1437 1436 1436 1435 1435 1434 1433 1432 1431 1430 1428 1427 1426 1425 1423 1422 1421 1420 1419 1418 1417 1416 1416 1415 1415 1415 1414 1413 1413 1413 1412
1451 1451 1451 1451 1451 1451 1451 1451 1451 1451 1451 1451 1451 1451 1450 1450 1450 1449 1449 1448 1447 1447 1446 1446 1445 1445 1444 1443 1442 1441 1441 1440 1439 1438 1438 1437 1436 1435 1434 1433 1433 1432 1432 1431 1430 1429 1428 1427 1426 1425 1423 1422 1420 1419 1418 1417 1416 1415 1414 1414 1413 1412 1412 1412 1411 1411 1410 1410 1409
1450 1450 1450 1450 1450 1451 1450 1450 1450 1450 1450 1450 1449 1449 1449 1448 1448 1448 1447 1446 1446 1445 1445 1444 1443 1443 1442 1441 1441 1440 1439 1438 1437 1436 1435 1435 1434 1433 1431 1430 1429 1429 1428 1428 1427 1426 1425 1424 1423 1422 1421 1419 1417 1416 1415 1414 1413 1412 1411 1411 1410 1410 1410 1409 1408 1407 1407 1406 1406
1449 1449 1449 1449 1449 1449 1449 1449 1449 1448 1448 1448 1448 1448 1447 1447 1446 1446 1446 1445 1444 1443 1443 1442 1441 1441 1440 1440 1439 1438 1437 1436 1435 1434 1433 1432 1431 1430 1429 1427 1426 1425 1425 1425 1424 1423 1422 1421 1420 1419 1417 1416 1414 1413 1412 1411 1410 1409 1408 1408 1407 1407 1406 1406 1406 1405 1404 1403 1403
1448 1448 1448 1448 1448 1448 1448 1447 1447 1447 1447 1446 1446 1446 1446 1446 1445 1445 1444 1443 1442 1442 1441 1440 1440 1439 1438 1437 1436 1436 1435 1434 1433 1432 1431 1430 1428 1427 1426 1425 1423 1422 1422 1421 1421 1420 1419 1418 1417 1416 1415 1413 1412 1410 1409 1408 1407 1406 1406 1405 1405 1404 1404 1403 1403 1402 1401 1401 1400
1446 1447 1447 1447 1446 1446 1446 1446 1446 1446 1445 1445 1445 1445 1444 1444 1443 1443 1442 1441 1441 1440 1439 1438 1437 1437 1436 1435 1434 1433 1432 1431 1431 1430 1429 1427 1426 1425 1424 1422 1421 1419 1419 1418 1417 1416 1416 1415 1414 1413 1411 1410 1409 1408 1406 1405 1404 1403 1402 1402 1402 1401 1401 1400 1400 1399 1398 1397 1397
1446 1446 1446 1446 1445 1445 1445 1445 1444 1444 1444 1444 1443 1443 1443 1442 1442 1441 1441 1440 1439 1438 1437 1436 1436 1435 1434 1433 1432 1431 1430 1429 1428 1427 1426 1425 1424 1422 1421 1420 1418 1417 1416 1415 1415 1413 1412 1411 1411 1410 1409 1408 1406 1405 1404 1403 1402 1401 1400 1399 1399 1399 1398 1397 1396 1396 1396 1395 1394